sat.trackr.live / text

‹ back to catalog

STARLINK-3729

NORAD 52135 · 2022-029AZ

PAYLOAD ACTIVE UNKNOWN

§ Identity

Operator
Country
US
Launch date
2022-03-19
Launch site
AFETR
Launch vehicle
Mass (kg)
RCS (m²)

Purposes: comms

External: N2YO · Heavens-Above · Gunter

§ Orbital elements

Epoch: 2026-05-25T01:23:45.790368Z

Period
90.76 min
Inclination
53.2182°
Eccentricity
0.0000948
Mean motion
15.86599539 rev/d
Perigee alt
311.2 km
Apogee alt
312.5 km
Semi-major
6,690.0 km
B*
4.7592e-3
RAAN
73.8506°
Arg perigee
162.1318°
Mean anomaly
197.9742°
Rev number
23,264

§ Raw data

STARLINK-37291 52135U 22029AZ  26145.05816887  .01381596  00000+0  47592-2 0  99932 52135  53.2182  73.8506 0000948 162.1318 197.9742 15.86599539232647

JSON: /api/v1/satellites/52135 · /tle

For live sub-satellite position, see the globe view (requires WebGL).

§ Visibility from observer

Set your observer location to see the next 7 days of passes ≥ 10°. The values pass through the URL so the page stays shareable.

No JS? Fill the form by hand. The geolocation button needs JavaScript.